Traverse City, MI

9:35 AM EDT on May 24, 2017 (GMT -0400)
Cherry Capital

Weather History for KTVC - November, 2011

Change the Weather History Date:

Sunday, November 27, 2011

  Actual Average Record
Temperature  
Mean Temperature 42 °F 33 °F  
Max Temperature 50 °F 39 °F 66 °F (1990)
Min Temperature 34 °F 27 °F 3 °F (1951)
Degree Days  
Heating Degree Days 23 32  
Month to date heating degree days 595 732  
Since 1 July heating degree days 1216 1519  
Moisture  
Dew Point 36 °F    
Average Humidity 84    
Maximum Humidity 93    
Minimum Humidity 75    
Precipitation  
Precipitation 0.43 in 0.08 in 2.46 in (1995)
Month to date precipitation 3.22 2.45  
Year to date precipitation 25.76 30.31  
Sea Level Pressure  
Sea Level Pressure 29.89 in    
Wind  
Wind Speed 10 mph (NW)    
Max Wind Speed 18 mph    
Max Gust Speed 24 mph    
Visibility 8 miles    
Events Rain , Snow    
T = Trace of Precipitation, MM = Missing Value Source: NWS Daily Summary

Daily Weather History Graph

Daily Weather History Graph

Search for Another Location

Airport or City:

Trip Planner

Search our weather history database for the weather conditions in past years. The results will help you decide how hot, cold, wet, or windy it might be!

Date:

Astronomy

Nov. 27, 2011 Rise Set
Actual Time 7:54 AM EST 5:05 PM EST
Civil Twilight 7:21 AM EST 5:37 PM EST
Nautical Twilight 6:45 AM EST 6:13 PM EST
Astronomical Twilight 6:10 AM EST 6:48 PM EST
Moon 10:19 AM EST (11/27) 7:42 PM EST (11/27)
Length of Visible Light 10h 15m
Length of Day
9h 10m
Waxing Crescent, 8% of the Moon is Illuminated
Nov 27
Waxing Crescent
Dec 2
First Quarter
Dec 10
Full
Dec 17
Last Quarter
Dec 24
New

Hourly Weather History & Observations

Time (EST) Temp. Windchill Dew Point Humidity Pressure Visibility Wind Dir Wind Speed Gust Speed Precip Events Conditions
12:27 AM 50.0 °F - 48.2 °F 94% 29.73 in 4.0 mi WNW 3.5 mph - 0.02 in Rain Light Rain
12:35 AM 50.0 °F - 48.2 °F 94% 29.73 in 5.0 mi WNW 4.6 mph - 0.03 in Rain Light Rain
12:53 AM 50.0 °F - 48.0 °F 93% 29.73 in 4.0 mi NW 3.5 mph - 0.06 in Rain Rain
1:17 AM 48.2 °F - 46.4 °F 93% 29.72 in 5.0 mi NW 10.4 mph - N/A Rain Rain
1:30 AM 48.2 °F - 44.6 °F 87% 29.72 in 5.0 mi NW 10.4 mph - 0.07 in Rain Light Rain
1:53 AM 46.9 °F - 44.1 °F 90% 29.73 in 5.0 mi NNW 6.9 mph - 0.11 in Rain Light Rain
2:24 AM 46.4 °F 43.5 °F 44.6 °F 93% 29.73 in 6.0 mi North 5.8 mph - 0.04 in Rain Light Rain
2:40 AM 46.4 °F 42.9 °F 44.6 °F 93% 29.74 in 5.0 mi NNW 6.9 mph - 0.06 in Rain Rain
2:53 AM 46.0 °F 41.9 °F 43.0 °F 89% 29.75 in 5.0 mi NNW 8.1 mph - 0.08 in Rain Light Rain
3:13 AM 46.4 °F 43.5 °F 42.8 °F 87% 29.74 in 7.0 mi NNW 5.8 mph - 0.03 in Rain Light Rain
3:32 AM 44.6 °F 40.7 °F 42.8 °F 93% 29.74 in 6.0 mi NNW 6.9 mph - 0.05 in Rain Light Rain
3:53 AM 45.0 °F 42.6 °F 43.0 °F 93% 29.75 in 6.0 mi NW 4.6 mph - 0.07 in Rain Light Rain
4:46 AM 44.6 °F 39.7 °F 39.2 °F 81% 29.75 in 9.0 mi NNW 9.2 mph 17.3 mph 0.05 in Rain Light Rain
4:53 AM 43.0 °F 38.8 °F 39.9 °F 89% 29.76 in 10.0 mi North 6.9 mph - 0.06 in Rain Light Rain
5:53 AM 42.1 °F 37.1 °F 39.0 °F 89% 29.76 in 10.0 mi North 8.1 mph - 0.02 in Rain Light Rain
6:53 AM 41.0 °F 34.3 °F 37.9 °F 89% 29.80 in 9.0 mi NNW 11.5 mph - 0.00 in Rain Light Rain
7:53 AM 39.9 °F 33.4 °F 36.0 °F 86% 29.82 in 10.0 mi NNW 10.4 mph - 0.01 in Rain Light Rain
8:53 AM 37.9 °F 31.5 °F 35.1 °F 89% 29.86 in 7.0 mi NNW 9.2 mph - 0.00 in Rain Light Rain
9:53 AM 37.4 °F 30.8 °F 35.6 °F 93% 29.87 in 10.0 mi NNW 9.2 mph - N/A Rain Light Rain
10:53 AM 37.9 °F 30.0 °F 35.1 °F 89% 29.91 in 9.0 mi NW 12.7 mph - 0.00 in Rain Light Rain
11:53 AM 37.9 °F 29.6 °F 34.0 °F 86% 29.90 in 10.0 mi NNW 13.8 mph 20.7 mph 0.00 in Rain Light Rain
12:22 PM 37.4 °F 28.9 °F 33.8 °F 87% 29.90 in 10.0 mi NNW 13.8 mph - 0.00 in Rain Light Rain
12:53 PM 37.0 °F 28.9 °F 33.1 °F 86% 29.91 in 10.0 mi NNW 12.7 mph 21.9 mph 0.00 in Rain Light Rain
1:53 PM 36.0 °F 26.3 °F 32.0 °F 86% 29.93 in 8.0 mi North 16.1 mph - 0.00 in Rain Light Rain
2:53 PM 36.0 °F 28.0 °F 30.9 °F 82% 29.94 in 7.0 mi NW 11.5 mph - 0.00 in Rain Light Rain
3:53 PM 36.0 °F 28.0 °F 32.0 °F 86% 29.97 in 7.0 mi NNW 11.5 mph - 0.01 in   Overcast
4:29 PM 35.6 °F 27.5 °F 32.0 °F 87% 29.97 in 7.0 mi WNW 11.5 mph - 0.00 in   Overcast
4:53 PM 35.1 °F 25.9 °F 30.9 °F 85% 29.99 in 10.0 mi NW 13.8 mph - 0.00 in   Overcast
5:53 PM 35.1 °F 30.1 °F 32.0 °F 89% 30.01 in 10.0 mi NNW 5.8 mph - 0.00 in   Overcast
6:53 PM 34.0 °F 27.2 °F 30.9 °F 89% 30.04 in 5.0 mi NNW 8.1 mph - 0.00 in Snow Light Snow
7:53 PM 35.1 °F 26.9 °F 28.0 °F 76% 30.04 in 10.0 mi NW 11.5 mph - 0.00 in   Overcast
8:53 PM 35.1 °F 27.4 °F 28.0 °F 76% 30.05 in 10.0 mi NW 10.4 mph - N/A   Overcast
9:53 PM 34.0 °F 25.0 °F 30.0 °F 85% 30.08 in 10.0 mi NW 12.7 mph - 0.00 in   Overcast
10:02 PM 33.8 °F 24.8 °F 30.2 °F 87% 30.07 in 10.0 mi NW 12.7 mph - N/A   Overcast
10:13 PM 33.8 °F 25.3 °F 30.2 °F 87% 30.07 in 10.0 mi NW 11.5 mph - N/A   Overcast
10:17 PM 33.8 °F 25.3 °F 30.2 °F 87% 30.07 in 5.0 mi NW 11.5 mph - N/A   Overcast
10:31 PM 33.8 °F 27.7 °F 30.2 °F 87% 30.07 in 5.0 mi NW 6.9 mph - 0.00 in Snow Light Snow
10:38 PM 33.8 °F 26.4 °F 30.2 °F 87% 30.07 in 9.0 mi WNW 9.2 mph - 0.00 in   Overcast
10:53 PM 34.0 °F 29.8 °F 30.0 °F 85% 30.09 in 9.0 mi West 4.6 mph - 0.00 in   Overcast
11:01 PM 33.8 °F 28.6 °F 30.2 °F 87% 30.07 in 10.0 mi WNW 5.8 mph - N/A   Overcast
11:53 PM 34.0 °F 26.6 °F 30.9 °F 89% 30.11 in 9.0 mi WNW 9.2 mph - 0.00 in   Overcast